Location: Sternwarte ZA, Rosenfeld-Brittheim
(48.2889°N, 8.6789°E)
Time: 06:12:18
(UTC+02:00)

ISS - Pass Details

Date: 13 July 2018
Orbit: 402 x 408 km, 51.6° (Epoch: 23 July)

Event Time Altitude Azimuth Distance (km) Brightness Sun altitude
Exits shadow 01:57:47 27° 98° (E) 818 -2.4 -19.6°
Drops below altitude 10° 01:59:39 10° 77° (ENE) 1,472 -0.8 -19.6°
Sets 02:01:49 0° 69° (ENE) 2,337 0.4 -19.5°
